N717SM CYVR-KTPF

Flight info

Callsign N717SM
Flight time N/A
Altitude 41000
Route YVR J52 GEG J136 BIL J151 OVR DCT VIH/N0482F450 DCT VUZ J41 MGM DCT PIE
Aircraft C750/M-SBDE3FGHRWXY/S

Departure

Time N/A
Airport Vancouver International Airport (CYVR)

Arrival

Time 2026-05-05 21:43
Airport Peter O Knight Airport (KTPF)
Time Latitude Longitude Altitude Speed Heading
2026-05-05 19:59 38.87166 -92.61905 44949 ft 555 kts 142°
2026-05-05 20:02 38.85000 -92.59095 44951 ft 534 kts 142°
2026-05-05 20:02 38.79793 -92.52415 44948 ft 534 kts 143°
2026-05-05 20:03 38.74478 -92.45583 44960 ft 548 kts 142°
2026-05-05 20:03 38.69047 -92.38610 44959 ft 557 kts 142°
2026-05-05 20:04 38.63548 -92.31582 44952 ft 559 kts 142°
2026-05-05 20:04 38.58060 -92.24569 44944 ft 557 kts 142°
2026-05-05 20:05 38.52565 -92.17581 44936 ft 556 kts 142°
2026-05-05 20:05 38.47084 -92.10611 44938 ft 556 kts 142°
2026-05-05 20:06 38.41599 -92.03662 44929 ft 555 kts 142°
2026-05-05 20:06 38.36121 -91.96732 44926 ft 555 kts 143°
2026-05-05 20:07 38.30635 -91.89811 44911 ft 554 kts 143°
2026-05-05 20:07 38.25159 -91.82917 44913 ft 554 kts 143°
2026-05-05 20:08 38.19666 -91.76019 44914 ft 556 kts 143°
2026-05-05 20:08 38.14142 -91.69190 44913 ft 551 kts 145°
2026-05-05 20:09 38.08463 -91.62639 44920 ft 552 kts 146°
2026-05-05 20:09 38.02841 -91.56111 44908 ft 551 kts 146°
2026-05-05 20:10 37.97162 -91.49571 44900 ft 552 kts 146°
2026-05-05 20:10 37.91450 -91.42982 44887 ft 552 kts 146°
2026-05-05 20:11 37.85759 -91.36446 44881 ft 553 kts 146°
2026-05-05 20:11 37.80064 -91.29913 44884 ft 553 kts 146°
2026-05-05 20:12 37.74398 -91.23429 44885 ft 553 kts 146°
2026-05-05 20:12 37.68695 -91.16918 44885 ft 553 kts 146°
2026-05-05 20:13 37.62985 -91.10410 44878 ft 553 kts 146°
2026-05-05 20:13 37.57269 -91.03913 44884 ft 553 kts 146°
2026-05-05 20:14 37.51553 -90.97427 44874 ft 553 kts 146°
2026-05-05 20:14 37.45826 -90.90945 44864 ft 553 kts 146°
2026-05-05 20:15 37.40098 -90.84473 44863 ft 554 kts 146°
2026-05-05 20:15 37.34367 -90.78015 44856 ft 554 kts 146°
2026-05-05 20:16 37.28623 -90.71552 44855 ft 553 kts 146°
2026-05-05 20:16 37.22889 -90.65117 44849 ft 553 kts 146°
2026-05-05 20:17 37.17140 -90.58678 44851 ft 554 kts 146°
2026-05-05 20:17 37.11390 -90.52250 44850 ft 554 kts 146°
2026-05-05 20:18 37.05635 -90.45834 44837 ft 554 kts 146°
2026-05-05 20:18 36.99875 -90.39422 44832 ft 554 kts 146°
2026-05-05 20:19 36.94148 -90.33063 44819 ft 554 kts 146°
2026-05-05 20:19 36.88382 -90.26674 44816 ft 554 kts 146°
2026-05-05 20:20 36.82615 -90.20295 44814 ft 554 kts 146°
2026-05-05 20:20 36.76833 -90.13914 44816 ft 555 kts 146°
2026-05-05 20:21 36.71054 -90.07550 44829 ft 555 kts 146°
2026-05-05 20:21 36.65263 -90.01185 44837 ft 555 kts 146°
2026-05-05 20:22 36.59468 -89.94831 44835 ft 555 kts 146°
2026-05-05 20:22 36.53662 -89.88476 44833 ft 555 kts 146°
2026-05-05 20:23 36.47857 -89.82137 44829 ft 556 kts 146°
2026-05-05 20:23 36.42047 -89.75804 44837 ft 556 kts 146°
2026-05-05 20:24 36.36226 -89.69475 44829 ft 556 kts 146°
2026-05-05 20:24 36.30397 -89.63147 44820 ft 557 kts 146°
2026-05-05 20:25 36.24564 -89.56831 44825 ft 557 kts 146°
2026-05-05 20:25 36.18732 -89.50524 44822 ft 557 kts 146°
2026-05-05 20:26 36.12894 -89.44230 44823 ft 557 kts 146°
2026-05-05 20:26 36.08031 -89.38992 44829 ft 558 kts 146°
2026-05-05 20:27 36.02176 -89.32701 44829 ft 558 kts 146°
2026-05-05 20:27 35.96312 -89.26413 44835 ft 559 kts 146°
2026-05-05 20:28 35.90439 -89.20126 44834 ft 559 kts 146°
2026-05-05 20:28 35.84560 -89.13848 44850 ft 560 kts 146°
2026-05-05 20:29 35.78666 -89.07565 44856 ft 560 kts 146°
2026-05-05 20:29 35.72764 -89.01290 44870 ft 562 kts 146°
2026-05-05 20:30 35.66832 -88.94991 44877 ft 563 kts 146°
2026-05-05 20:30 35.60901 -88.88707 44871 ft 563 kts 146°
2026-05-05 20:31 35.54966 -88.82434 44869 ft 563 kts 146°
2026-05-05 20:31 35.49020 -88.76158 44868 ft 564 kts 146°
2026-05-05 20:32 35.43069 -88.69894 44873 ft 564 kts 146°
2026-05-05 20:32 35.37105 -88.63625 44879 ft 564 kts 146°
2026-05-05 20:33 35.31146 -88.57377 44878 ft 564 kts 146°
2026-05-05 20:33 35.25172 -88.51126 44880 ft 565 kts 146°
2026-05-05 20:34 35.19203 -88.44889 44881 ft 565 kts 146°
2026-05-05 20:34 35.13219 -88.38653 44885 ft 566 kts 146°
2026-05-05 20:35 35.07264 -88.32458 44872 ft 566 kts 146°
2026-05-05 20:35 35.01269 -88.26234 44878 ft 566 kts 146°
2026-05-05 20:36 34.95268 -88.20015 44894 ft 567 kts 146°
2026-05-05 20:36 34.89259 -88.13801 44899 ft 567 kts 146°
2026-05-05 20:37 34.83239 -88.07589 44920 ft 567 kts 146°
2026-05-05 20:37 34.77217 -88.01386 44923 ft 567 kts 146°
2026-05-05 20:38 34.71191 -87.95191 44933 ft 567 kts 146°
2026-05-05 20:38 34.65155 -87.88998 44931 ft 568 kts 146°
2026-05-05 20:39 34.59113 -87.82813 44931 ft 568 kts 146°
2026-05-05 20:39 34.53060 -87.76626 44930 ft 569 kts 146°
2026-05-05 20:40 34.47004 -87.70451 44930 ft 569 kts 146°
2026-05-05 20:40 34.40943 -87.64281 44938 ft 569 kts 146°
2026-05-05 20:41 34.34873 -87.58115 44941 ft 569 kts 146°
2026-05-05 20:41 34.28795 -87.51952 44935 ft 570 kts 146°
2026-05-05 20:42 34.22713 -87.45797 44937 ft 570 kts 146°
2026-05-05 20:42 34.16621 -87.39645 44953 ft 571 kts 146°
2026-05-05 20:43 34.10527 -87.33503 44958 ft 571 kts 146°
2026-05-05 20:43 34.04472 -87.27411 44967 ft 571 kts 146°
2026-05-05 20:44 33.98330 -87.21244 44968 ft 571 kts 146°
2026-05-05 20:44 33.92222 -87.15123 44966 ft 571 kts 147°
2026-05-05 20:45 33.83091 -87.05993 44965 ft 571 kts 147°
2026-05-05 20:45 33.76969 -86.99889 44968 ft 572 kts 147°
2026-05-05 20:46 33.70838 -86.93787 44996 ft 572 kts 147°
2026-05-05 20:46 33.64229 -86.88792 45004 ft 553 kts 164°
2026-05-05 20:47 33.57080 -86.85845 45029 ft 539 kts 174°
2026-05-05 20:47 33.49890 -86.83110 45030 ft 546 kts 169°
2026-05-05 20:48 33.42746 -86.80041 45023 ft 543 kts 172°
2026-05-05 20:48 33.35560 -86.77271 45011 ft 544 kts 171°
2026-05-05 20:49 33.28475 -86.74301 45005 ft 543 kts 171°
2026-05-05 20:49 33.21304 -86.71481 45007 ft 543 kts 171°
2026-05-05 20:50 33.14148 -86.68552 45004 ft 544 kts 171°
2026-05-05 20:50 33.06972 -86.65692 45000 ft 544 kts 171°
2026-05-05 20:51 32.99804 -86.62801 44993 ft 544 kts 171°
2026-05-05 20:51 32.92624 -86.59931 44992 ft 546 kts 171°
2026-05-05 20:52 32.85420 -86.57045 44983 ft 546 kts 171°
2026-05-05 20:52 32.78262 -86.54186 44984 ft 546 kts 171°
2026-05-05 20:53 32.71058 -86.51315 44986 ft 546 kts 171°
2026-05-05 20:53 32.63859 -86.48448 44982 ft 546 kts 171°
2026-05-05 20:54 32.56648 -86.45585 44976 ft 546 kts 171°
2026-05-05 20:54 32.49443 -86.42724 44975 ft 546 kts 171°
2026-05-05 20:55 32.42235 -86.39872 44977 ft 546 kts 171°
2026-05-05 20:55 32.35018 -86.37017 44972 ft 546 kts 171°
2026-05-05 20:56 32.27816 -86.34176 45002 ft 546 kts 171°
2026-05-05 20:56 32.20759 -86.30571 44994 ft 564 kts 156°
2026-05-05 20:57 32.14370 -86.25018 45012 ft 574 kts 147°
2026-05-05 20:57 32.08053 -86.19301 45017 ft 571 kts 151°
2026-05-05 20:58 32.01654 -86.13741 45024 ft 573 kts 148°
2026-05-05 20:58 31.95334 -86.08032 45022 ft 571 kts 150°
2026-05-05 20:59 31.88993 -86.02520 45019 ft 572 kts 149°
2026-05-05 20:59 31.82656 -85.96853 45020 ft 572 kts 149°
2026-05-05 21:00 31.76278 -85.91287 45023 ft 571 kts 149°
2026-05-05 21:00 31.69924 -85.85663 45015 ft 572 kts 149°
2026-05-05 21:01 31.63544 -85.80084 45007 ft 572 kts 149°
2026-05-05 21:01 31.57173 -85.74488 45001 ft 572 kts 149°
2026-05-05 21:02 31.50796 -85.68914 44995 ft 572 kts 149°
2026-05-05 21:02 31.44416 -85.63341 45000 ft 571 kts 149°
2026-05-05 21:03 31.38033 -85.57776 45042 ft 572 kts 149°
2026-05-05 21:03 31.31656 -85.52226 45049 ft 571 kts 149°
2026-05-05 21:04 31.25275 -85.46681 45043 ft 571 kts 149°
2026-05-05 21:04 31.18899 -85.41153 45041 ft 571 kts 149°
2026-05-05 21:05 31.12520 -85.35627 45035 ft 571 kts 149°
2026-05-05 21:05 31.06140 -85.30115 45015 ft 570 kts 149°
2026-05-05 21:06 30.99765 -85.24612 45014 ft 570 kts 149°
2026-05-05 21:06 30.93390 -85.19122 45016 ft 570 kts 149°
2026-05-05 21:07 30.87008 -85.13633 45010 ft 570 kts 149°
2026-05-05 21:07 30.80627 -85.08156 45012 ft 570 kts 149°
2026-05-05 21:08 30.74288 -85.02722 45010 ft 570 kts 149°
2026-05-05 21:08 30.67903 -84.97260 45020 ft 570 kts 149°
2026-05-05 21:09 30.61512 -84.91800 45019 ft 570 kts 149°
2026-05-05 21:09 30.55118 -84.86348 45022 ft 570 kts 149°
2026-05-05 21:10 30.48724 -84.80905 45025 ft 570 kts 149°
2026-05-05 21:10 30.42321 -84.75462 45031 ft 571 kts 149°
2026-05-05 21:11 30.35917 -84.70029 45032 ft 571 kts 149°
2026-05-05 21:11 30.29506 -84.64598 45035 ft 571 kts 149°
2026-05-05 21:12 30.23097 -84.59179 45041 ft 571 kts 149°
2026-05-05 21:12 30.16680 -84.53761 45037 ft 571 kts 149°
2026-05-05 21:13 30.10261 -84.48350 45041 ft 571 kts 149°
2026-05-05 21:13 30.03847 -84.42952 45044 ft 571 kts 149°
2026-05-05 21:14 29.97427 -84.37559 45045 ft 571 kts 149°
2026-05-05 21:14 29.92092 -84.33084 45042 ft 571 kts 149°
2026-05-05 21:15 29.85666 -84.27701 45038 ft 571 kts 149°
2026-05-05 21:15 29.79238 -84.22326 45040 ft 571 kts 149°
2026-05-05 21:16 29.72805 -84.16954 45041 ft 571 kts 149°
2026-05-05 21:16 29.66357 -84.11580 45044 ft 574 kts 149°
2026-05-05 21:17 29.59893 -84.06200 45040 ft 574 kts 149°
2026-05-05 21:17 29.53422 -84.00825 45034 ft 574 kts 149°
2026-05-05 21:18 29.46958 -83.95462 45036 ft 573 kts 149°
2026-05-05 21:18 29.40487 -83.90103 45032 ft 574 kts 149°
2026-05-05 21:19 29.34057 -83.84785 45027 ft 574 kts 149°
2026-05-05 21:19 29.27643 -83.79484 45007 ft 544 kts 149°
2026-05-05 21:20 29.24681 -83.77022 44847 ft 512 kts 149°
2026-05-05 21:20 29.21796 -83.74661 44563 ft 515 kts 150°
2026-05-05 21:20 29.18808 -83.72239 43619 ft 538 kts 149°
2026-05-05 21:20 29.15839 -83.69781 42621 ft 517 kts 149°
2026-05-05 21:21 29.12957 -83.67373 41666 ft 509 kts 149°
2026-05-05 21:21 29.10095 -83.65028 40748 ft 504 kts 150°
2026-05-05 21:21 29.07249 -83.62720 39871 ft 499 kts 150°
2026-05-05 21:21 29.04439 -83.60416 39030 ft 496 kts 149°
2026-05-05 21:22 29.01651 -83.58112 38127 ft 493 kts 149°
2026-05-05 21:22 28.98877 -83.55835 37203 ft 489 kts 149°
2026-05-05 21:22 28.96121 -83.53589 36315 ft 485 kts 149°
2026-05-05 21:22 28.93386 -83.51356 35458 ft 481 kts 148°
2026-05-05 21:23 28.90678 -83.49135 34632 ft 477 kts 148°
2026-05-05 21:23 28.87992 -83.46936 33791 ft 473 kts 148°
2026-05-05 21:23 28.85326 -83.44762 32891 ft 469 kts 148°
2026-05-05 21:23 28.82687 -83.42611 32017 ft 464 kts 148°
2026-05-05 21:24 28.80075 -83.40478 31171 ft 460 kts 147°
2026-05-05 21:24 28.77485 -83.38365 30349 ft 455 kts 147°
2026-05-05 21:24 28.74925 -83.36281 29442 ft 451 kts 147°
2026-05-05 21:24 28.72382 -83.34212 28519 ft 446 kts 148°
2026-05-05 21:25 28.69869 -83.32166 27628 ft 441 kts 148°
2026-05-05 21:25 28.67387 -83.30147 26761 ft 436 kts 148°
2026-05-05 21:25 28.64931 -83.28152 25926 ft 431 kts 148°
2026-05-05 21:25 28.62500 -83.26178 25106 ft 426 kts 148°
2026-05-05 21:26 28.60102 -83.24231 24309 ft 421 kts 148°
2026-05-05 21:26 28.57736 -83.22311 23516 ft 416 kts 148°
2026-05-05 21:26 28.55396 -83.20415 22594 ft 410 kts 148°
2026-05-05 21:26 28.53024 -83.18498 21681 ft 437 kts 147°
2026-05-05 21:27 28.50464 -83.16432 20723 ft 455 kts 147°
2026-05-05 21:27 28.47926 -83.14318 19824 ft 450 kts 146°
2026-05-05 21:27 28.45436 -83.12210 19032 ft 442 kts 145°
2026-05-05 21:27 28.42992 -83.10139 18245 ft 435 kts 145°
2026-05-05 21:28 28.40579 -83.08102 17350 ft 428 kts 145°
2026-05-05 21:28 28.38211 -83.06108 16484 ft 420 kts 145°
2026-05-05 21:28 28.35987 -83.04244 15678 ft 413 kts 145°
2026-05-05 21:28 28.33666 -83.02304 14840 ft 405 kts 145°
2026-05-05 21:29 28.31414 -83.00428 14036 ft 398 kts 145°
2026-05-05 21:29 28.29228 -82.98546 13142 ft 391 kts 140°
2026-05-05 21:29 28.27632 -82.96148 12136 ft 383 kts 117°
2026-05-05 21:29 28.26658 -82.93396 11287 ft 371 kts 108°
2026-05-05 21:30 28.25898 -82.90646 10490 ft 360 kts 106°
2026-05-05 21:30 28.25209 -82.87958 9677 ft 351 kts 105°
2026-05-05 21:30 28.24553 -82.85330 8805 ft 342 kts 105°
2026-05-05 21:30 28.23924 -82.82754 7947 ft 335 kts 105°
2026-05-05 21:31 28.23354 -82.80359 7127 ft 293 kts 105°
2026-05-05 21:31 28.22791 -82.78152 6324 ft 276 kts 110°
2026-05-05 21:31 28.22036 -82.76157 5630 ft 273 kts 116°
2026-05-05 21:31 28.21261 -82.74249 5178 ft 264 kts 114°
2026-05-05 21:32 28.20592 -82.72317 4549 ft 260 kts 111°
2026-05-05 21:32 28.19973 -82.70411 3631 ft 258 kts 111°
2026-05-05 21:32 28.19326 -82.68517 2821 ft 255 kts 112°
2026-05-05 21:32 28.18695 -82.66715 2626 ft 234 kts 112°
2026-05-05 21:33 28.18109 -82.65024 2631 ft 234 kts 112°
2026-05-05 21:33 28.17511 -82.63293 2629 ft 237 kts 112°
2026-05-05 21:33 28.16914 -82.61560 2631 ft 231 kts 112°
2026-05-05 21:33 28.16334 -82.59883 2628 ft 229 kts 112°
2026-05-05 21:34 28.15752 -82.58203 2629 ft 229 kts 112°
2026-05-05 21:34 28.15169 -82.56515 2631 ft 230 kts 112°
2026-05-05 21:34 28.14584 -82.54825 2623 ft 230 kts 112°
2026-05-05 21:34 28.14005 -82.53157 2628 ft 231 kts 112°
2026-05-05 21:35 28.13419 -82.51462 2624 ft 231 kts 111°
2026-05-05 21:35 28.12833 -82.49772 2616 ft 231 kts 112°
2026-05-05 21:35 28.12246 -82.48081 2606 ft 231 kts 111°
2026-05-05 21:35 28.11666 -82.46411 2588 ft 222 kts 111°
2026-05-05 21:36 28.11110 -82.44809 2585 ft 218 kts 111°
2026-05-05 21:36 28.10554 -82.43206 2601 ft 219 kts 111°
2026-05-05 21:36 28.09994 -82.41595 2591 ft 219 kts 111°
2026-05-05 21:36 28.09435 -82.39987 2601 ft 220 kts 111°
2026-05-05 21:37 28.08879 -82.38387 2600 ft 211 kts 111°
2026-05-05 21:37 28.08363 -82.36904 2586 ft 196 kts 111°
2026-05-05 21:37 28.07861 -82.35483 2568 ft 195 kts 112°
2026-05-05 21:37 28.07040 -82.34344 2414 ft 182 kts 144°
2026-05-05 21:38 28.05939 -82.33855 2206 ft 166 kts 171°
2026-05-05 21:38 28.04783 -82.33970 2016 ft 172 kts 197°
2026-05-05 21:38 28.03782 -82.34640 2043 ft 158 kts 217°
2026-05-05 21:38 28.02987 -82.35326 1992 ft 134 kts 216°
2026-05-05 21:39 28.02254 -82.35943 1857 ft 129 kts 216°
2026-05-05 21:39 28.01546 -82.36543 1785 ft 127 kts 216°
2026-05-05 21:39 28.00842 -82.37139 1720 ft 126 kts 216°
2026-05-05 21:39 28.00137 -82.37737 1674 ft 127 kts 216°
2026-05-05 21:40 27.99425 -82.38341 1634 ft 128 kts 216°
2026-05-05 21:40 27.98712 -82.38945 1579 ft 128 kts 216°
2026-05-05 21:40 27.97990 -82.39557 1489 ft 132 kts 216°
2026-05-05 21:40 27.97248 -82.40187 1320 ft 133 kts 216°
2026-05-05 21:41 27.96510 -82.40809 1138 ft 131 kts 216°
2026-05-05 21:41 27.95785 -82.41424 969 ft 129 kts 217°
2026-05-05 21:41 27.95072 -82.42031 808 ft 127 kts 217°
2026-05-05 21:41 27.94370 -82.42627 648 ft 125 kts 218°
2026-05-05 21:42 27.93679 -82.43212 484 ft 124 kts 218°
2026-05-05 21:42 27.92988 -82.43796 316 ft 123 kts 218°
2026-05-05 21:42 27.92305 -82.44378 141 ft 123 kts 218°
2026-05-05 21:42 27.91631 -82.44952 15 ft 112 kts 218°
2026-05-05 21:43 27.91226 -82.45289 14 ft 23 kts 218°
2026-05-05 21:43 27.91144 -82.45334 15 ft 8 kts 152°
2026-05-05 21:43 27.91140 -82.45304 15 ft 3 kts 49°
2026-05-05 21:43 27.91166 -82.45284 15 ft 5 kts 35°
2026-05-05 21:44 27.91216 -82.45242 15 ft 13 kts 37°
2026-05-05 21:44 27.91298 -82.45171 15 ft 15 kts 38°
2026-05-05 21:44 27.91374 -82.45108 15 ft 10 kts 51°
2026-05-05 21:44 27.91379 -82.45057 15 ft 10 kts 84°
2026-05-05 21:45 27.91398 -82.45036 16 ft 0 kts 343°